STARLINK-1560, 46036

Orbit data source: Space-Track

STARLINK-1560, 46036 is a payload satellite owned by SpaceX/Seattle (US) in LEO that was launched on Fri, 07 Aug 2020 UTC via an FALCON 9 launch vehicle from the Air Force Eastern Test Range (AFETR). Payload-class satellites include a variety of spacecraft equipped with specific instruments for various scientific and technological missions. These include communications satellites like Starlink; space stations such as the ISS; scientific satellites like the Hubble; Earth observation satellites from companies like Planet Labs, Umbra, and HawkEye 360; GPS; miniature CubeSats for education and research; and military/defense satellites.

Loading next visibility...
Identifier
46036, 2020-055K
Orbit
LEO
Country
Flag of USUS
Related business
Manufacturer
SpaceX/Seattle
Mission
Operational Commercial Communications
Bus & Motor
STARLINK, Unknown motor
Mass
260 kg wet, ~248 kg dry
Launch date (UTC)
2020-08-07 (6 years ago)
Launch vehicle
FALCON 9
Launch site
Air Force Eastern Test Range (AFETR)
Object type
Payload
Rocket body
Debris
Shape & HBR
Box + 1 Pan, 10.1 m
Radar Cross Section
13.562 m², Large (>1 m²)

Expand to show TLE details & history
Last TLE update: 22 hours ago

TLE from 22 hours ago
0 STARLINK-1560
1 46036U 20055K   26104.98529308  .00000927  00000-0  44439-4 0  9994
2 46036  53.1564 318.0673 0001373  96.9046 263.2110 15.29360059314453
Epoch: 2026-04-14T23:38Z
TLE epoch observation values (Epoch: 2026-04-14T23:38:49.322Z)
Latitude
-0.00005°
Longitude
120.20807°
Altitude
478.735 km
Speed
7.627 km/s
True Right ascension
21h 12m 16s
True Declination
0° 00' 00"
Sunlit
Object was in daylight at epoch
Visualization orbit readout
Latitude
Unknown
Longitude
Unknown
Altitude
Unknown
Speed
Unknown
Apparent Right ascension
Unknown
Apparent Declination
Unknown
Sunlit
N/A
Visualization observer readout
Local Sidereal Time
04:24:03
Azimuth
Unknown
Elevation
Unknown
Doppler factor
Unknown
Orbital elements
Apogee altitude
478.922 km
Perigee altitude
477.04 km
Semi-major axis
6,856.118 km
Eccentricity
0.00014
Inclination
53.1564°
RAAN
318.0673°
Arg. of periapsis
96.9046°
True anomaly
263.19538°
Mean anomaly
263.211°
Eccentric anomaly
263.20319°
Mean motion
3.82319 °/min
Orbital period
94.16 mins
BSTAR
0.000044439
Loading maneuver chart data...
Computing Atmospheric mass density...
Loading historical data...
Loading historical data...
Loading historical data...
Loading historical data...
Loading historical data...
Loading historical data...
Loading historical data...

Documentation

Showing up to 5 results
|